Regional Weather Roundup
Issued by NWS Little Rock, AR

Home | Current Version | Previous Version | Graphics & Text | Print | Product List | Glossary On
Versions: 1 2 3 4 5 6 7 8 9 10 11 12 13 14 15 16 17 18 19 20 21 22 23 24 25 26 27 28 29 30 31 32 33 34 35 36 37 38 39 40 41 42 43 44 45 46 47 48 49 50
000
ASUS44 KLZK 051005
RWRLZK

WEATHER ROUNDUP FOR ARKANSAS
NATIONAL WEATHER SERVICE LITTLE ROCK AR
500 AM CDT SUN JUL 05 2015

NOTE: "FAIR" INDICATES FEW OR NO CLOUDS BELOW 12,000 FEET WITH NO
SIGNIFICANT WEATHER AND/OR OBSTRUCTIONS TO VISIBILITY.

ARZ001-003-010-029-051100-
NORTHWEST ARKANSAS

CITY           SKY/WX    TMP DP  RH WIND       PRES   REMARKS
FAYETTEVILLE   PTCLDY    67  67 100 CALM      30.03S FOG
FORT SMITH     CLEAR     73  70  90 NE6       30.00R
HARRISON       FOG       68  68 100 S6        30.05R VSB 3/4
BENTONVILLE    CLEAR    N/A N/A N/A CALM      30.03R
ROGERS         CLEAR     70  69  97 SE6       30.04R
SILOAM SPGS    PTCLDY    70  64  83 SE5         N/A
HIGHFILL       CLEAR     70  69  97 S5        30.02S FOG
$$

ARZ004-005-016-051100-
NORTH CENTRAL ARKANSAS

CITY           SKY/WX    TMP DP  RH WIND       PRES   REMARKS
BATESVILLE     PTCLDY    72  70  94 SE5       30.04R
FLIPPIN        CLOUDY    70  68  94 CALM      30.02R
MTN HOME       CLOUDY    70  70 100 CALM      30.04R FOG
$$

ARZ040-041-051100-
WEST CENTRAL ARKANSAS

CITY           SKY/WX    TMP DP  RH WIND       PRES   REMARKS
MENA           CLEAR     68  68 100 CALM      30.05R
MOUNT IDA      PTCLDY    69  67  93 CALM      30.02R
$$

ARZ009-017-025-026-028-051100-
NORTHEAST ARKANSAS

CITY           SKY/WX    TMP DP  RH WIND       PRES   REMARKS
JONESBORO      PTCLDY    69  69 100 CALM      30.04R FOG
NEWPORT        PTCLDY    71  71 100 S5        30.05R
WALNUT RIDGE   PTCLDY    72  68  88 S3        30.04R
BLYTHEVILLE    CLEAR     72  72 100 SW5       30.04S
$$

ARZ022-023-033-042-044-051100-
CENTRAL ARKANSAS

CITY           SKY/WX    TMP DP  RH WIND       PRES   REMARKS
LITTLE ROCK    LGT RAIN  72  69  90 E6        30.03S
N LITTLE ROCK    N/A     71  71  99 E3        30.03S
JACKSONVILLE   CLEAR     71  70  99 SE2       30.03R
SEARCY         CLOUDY    71  70  96 S3        30.05S FOG
HOT SPRINGS    PTCLDY    71  69  93 CALM      30.04R
RUSSELLVILLE   MOCLDY    72  71  97 SE3       30.02R
CLINTON        CLOUDY    73  73 100 CALM      30.05R FOG
$$

ARZ036-051100-
EAST ARKANSAS

CITY           SKY/WX    TMP DP  RH WIND       PRES   REMARKS
WEST MEMPHIS   CLEAR     68  68 100 CALM      30.04R FOG
$$

ARZ050-053-066-070-073-051100-
SOUTHWEST ARKANSAS

CITY           SKY/WX    TMP DP  RH WIND       PRES   REMARKS
ARKADELPHIA    FOG       71  71 100 S3        30.05R VSB 1
CAMDEN         CLOUDY    70  66  88 CALM      30.05R
TEXARKANA      PTCLDY    70  69  97 CALM      30.04R FOG
EL DORADO      CLOUDY    69  68  96 CALM      30.05S
DE QUEEN       PTCLDY    69  69 100 CALM      30.02R FOG
$$

ARZ056-057-069-051100-
SOUTHEAST ARKANSAS

CITY           SKY/WX    TMP DP  RH WIND       PRES   REMARKS
PINE BLUFF     HVY RAIN  70  69  97 S13       30.03F FOG
STUTTGART      PTCLDY    70  66  88 S6        30.03R
MONTICELLO     MOCLDY    70  70 100 S5        30.06R

$$





USA.gov is the U.S. government's official web portal to all federal, state and local government web resources and services.